Weather History for Wainwright, AK

Change the Weather History Date:

Tuesday, December 11, 2012

  Actual Average (PABR) Record (PABR)
Temperature  
Mean Temperature -6 °F -7 °F  
Max Temperature -2 °F -1 °F 29 °F (1972)
Min Temperature -11 °F -13 °F -49 °F (1924)
Degree Days  
Heating Degree Days 72 72  
Month to date heating degree days 777  
Since 1 July heating degree days 6727  
Cooling Degree Days 0    
Month to date cooling degree days  
Year to date cooling degree days  
Moisture  
Dew Point -12 °F    
Average Humidity 74    
Maximum Humidity 84    
Minimum Humidity 66    
Precipitation  
Precipitation 0.00 in 0.00 in 0.12 in (1957)
Month to date precipitation 0.05  
Year to date precipitation 4.44  
Snow  
Snow 0.00 in 0.10 in 1.30 in (1961)
Month to date snowfall 1.4  
Since 1 July snowfall 21.7  
Snow Depth -    
Sea Level Pressure  
Sea Level Pressure 29.79 in    
Wind  
Wind Speed 13 mph (SW)    
Max Wind Speed 23 mph    
Max Gust Speed 21 mph    
Visibility 4 miles    
Events Snow    
T = Trace of Precipitation, MM = Missing Value Source: NWS Daily Summary

Daily Weather History Graph

Daily Weather History Graph

Search for Another Location

Airport:

Trip Planner

Search our weather history database for the weather conditions in past years. The results will help you decide how hot, cold, wet, or windy it might be!

Date:

Astronomy

Dec. 31, 1969 Rise Set
Actual Time Sun does not rise Sun does not rise
Civil Twilight 11:35 AM AKST 3:31 PM AKST
Nautical Twilight 9:41 AM AKST 5:25 PM AKST
Astronomical Twilight 8:19 AM AKST 6:47 PM AKST
Moon No Moon Rise No Moon Set
Length of Visible Light 3h 56m
Length of Day
0h 00m
Waning Crescent, 3% of the Moon is Illuminated
Dec 11
Waning Crescent
Dec 12
New
Dec 19
First Quarter
Dec 28
Full
Jan 4
Last Quarter

Hourly Weather History & Observations

Time (AKST) Temp. Windchill Dew Point Humidity Pressure Visibility Wind Dir Wind Speed Gust Speed Precip Events Conditions
12:51 AM -7.6 °F -24.6 °F -11.2 °F 84% 29.81 in 8.0 mi South 9.2 mph - N/A   Overcast
12:53 AM -7.1 °F -23.9 °F -11.9 °F 79% 29.82 in 8.0 mi South 9.2 mph - N/A   Overcast
1:53 AM -4.0 °F -19.0 °F -9.9 °F 76% 29.81 in 8.0 mi SSW 8.1 mph - 0.00 in   Overcast
2:20 AM -4.0 °F -23.0 °F -11.2 °F 71% 29.80 in 4.0 mi SSW 12.7 mph - 0.00 in Snow Light Snow
2:32 AM -5.8 °F -26.0 °F -11.2 °F 77% 29.80 in 2.5 mi South 13.8 mph - 0.00 in Snow Light Snow
2:42 AM -5.8 °F -24.4 °F -11.2 °F 77% 29.80 in 3.0 mi SSW 11.5 mph - 0.00 in Snow Light Snow
3:01 AM -5.8 °F -25.2 °F -11.2 °F 77% 29.80 in 4.0 mi SSW 12.7 mph - 0.00 in Snow Light Snow
3:53 AM -7.1 °F -26.8 °F -13.0 °F 75% 29.81 in 3.0 mi SSW 12.7 mph - 0.00 in Snow Light Snow
4:53 AM -9.0 °F -28.4 °F -15.0 °F 75% 29.80 in 5.0 mi SSW 11.5 mph - 0.00 in   Haze
5:53 AM -5.1 °F -23.5 °F -11.0 °F 76% 29.79 in 3.0 mi SW 11.5 mph - 0.00 in Snow Light Snow
6:10 AM -4.0 °F -24.5 °F -11.2 °F 71% 29.79 in 2.5 mi SW 15.0 mph - 0.00 in Snow Light Snow
6:33 AM -4.0 °F -25.2 °F -11.2 °F 71% 29.79 in 1.8 mi SW 16.1 mph - 0.00 in Snow Light Snow
6:51 AM -4.0 °F -23.7 °F -9.4 °F 78% 29.79 in 1.5 mi SW 13.8 mph - 0.00 in Snow Light Snow
6:53 AM -4.0 °F -25.2 °F -9.9 °F 76% 29.79 in 1.5 mi SSW 16.1 mph - 0.00 in Snow Light Snow
7:31 AM -2.2 °F -22.9 °F -9.4 °F 71% 29.80 in 2.5 mi SSW 16.1 mph 20.7 mph 0.00 in Snow Light Snow
7:53 AM -2.0 °F -18.7 °F -8.0 °F 76% 29.80 in 1.8 mi SW 10.4 mph - 0.00 in Snow Light Snow
8:44 AM -2.2 °F -25.7 °F -7.6 °F 78% 29.80 in 0.5 mi SSW 21.9 mph - 0.00 in Snow Snow
8:53 AM -2.0 °F -25.0 °F -8.0 °F 76% 29.80 in 0.5 mi SSW 20.7 mph - 0.00 in Snow Snow
9:09 AM -2.2 °F -26.2 °F -9.4 °F 71% 29.79 in 0.5 mi SSW 23.0 mph - 0.00 in Snow Snow
9:24 AM -4.0 °F -27.6 °F -9.4 °F 78% 29.80 in 0.8 mi SSW 20.7 mph - 0.00 in Snow Light Snow
9:40 AM -5.8 °F -29.4 °F -11.2 °F 77% 29.80 in 0.8 mi SSW 19.6 mph - 0.00 in Snow Light Snow
9:53 AM -5.1 °F -29.0 °F -11.0 °F 76% 29.80 in 0.8 mi SSW 20.7 mph - 0.00 in Snow Light Snow
10:17 AM -5.8 °F -29.9 °F -11.2 °F 77% 29.80 in 1.0 mi SSW 20.7 mph - 0.00 in Snow Light Snow
10:43 AM -5.8 °F -30.5 °F -13.0 °F 71% 29.79 in 1.2 mi SSW 21.9 mph - 0.00 in   Overcast
10:53 AM -7.1 °F -31.0 °F -13.0 °F 75% 29.80 in 1.8 mi SSW 19.6 mph - 0.00 in   Haze
11:04 AM -7.6 °F -31.7 °F -14.8 °F 71% 29.79 in 2.0 mi SSW 19.6 mph - 0.00 in   Overcast
11:53 AM -9.0 °F -33.0 °F -15.0 °F 75% 29.80 in 1.2 mi SSW 18.4 mph - 0.00 in Snow Light Snow
12:53 PM -8.0 °F -31.6 °F -15.0 °F 71% 29.81 in 1.2 mi SSW 18.4 mph - 0.00 in Snow Light Snow
1:28 PM -7.6 °F -31.1 °F -14.8 °F 71% 29.81 in 2.0 mi SSW 18.4 mph - 0.00 in Snow Light Snow
1:51 PM -7.6 °F -29.1 °F -13.0 °F 77% 29.81 in 3.0 mi SSW 15.0 mph - 0.00 in   Overcast
1:53 PM -6.0 °F -26.3 °F -13.0 °F 72% 29.81 in 3.0 mi SSW 13.8 mph - 0.00 in   Overcast
2:36 PM -2.2 °F -20.7 °F -9.4 °F 71% 29.79 in 2.0 mi West 12.7 mph - 0.00 in Snow Light Snow
2:49 PM -2.2 °F -19.9 °F -11.2 °F 66% 29.79 in 4.0 mi West 11.5 mph - 0.00 in Snow Light Snow
2:53 PM -2.9 °F -19.8 °F -11.0 °F 68% 29.80 in 4.0 mi West 10.4 mph - 0.00 in   Haze
3:53 PM -5.1 °F -23.5 °F -13.0 °F 69% 29.79 in 6.0 mi West 11.5 mph - 0.00 in   Haze
4:53 PM -7.1 °F -25.0 °F -15.0 °F 68% 29.79 in 10.0 mi WNW 10.4 mph - N/A   Mostly Cloudy
5:53 PM -7.1 °F -22.8 °F -14.1 °F 72% 29.80 in 10.0 mi WNW 8.1 mph - 0.00 in   Mostly Cloudy
6:09 PM -7.6 °F -22.1 °F -14.8 °F 71% 29.79 in 10.0 mi WNW 6.9 mph - N/A   Mostly Cloudy
6:53 PM -7.1 °F -23.9 °F -14.1 °F 72% 29.78 in 5.0 mi WNW 9.2 mph - 0.00 in   Overcast
7:22 PM -7.6 °F -25.7 °F -14.8 °F 71% 29.77 in 5.0 mi WNW 10.4 mph - N/A   Haze
7:27 PM -7.6 °F -25.7 °F -14.8 °F 71% 29.78 in 5.0 mi WNW 10.4 mph - N/A   Haze
7:53 PM -8.0 °F -25.0 °F -14.1 °F 75% 29.78 in 6.0 mi WNW 9.2 mph - N/A   Haze
8:13 PM -7.6 °F -26.6 °F -14.8 °F 71% 29.77 in 4.0 mi NW 11.5 mph - 0.00 in   Haze
8:53 PM -9.0 °F -25.2 °F -15.0 °F 75% 29.77 in 7.0 mi NNW 8.1 mph - 0.00 in   Mostly Cloudy
9:12 PM -9.4 °F -27.9 °F -16.6 °F 71% 29.76 in 10.0 mi NNW 10.4 mph - N/A   Scattered Clouds
9:53 PM -9.9 °F -27.5 °F -16.1 °F 74% 29.75 in 10.0 mi NW 9.2 mph - N/A   Clear
10:53 PM -11.0 °F -28.8 °F -17.0 °F 75% 29.74 in 10.0 mi NNW 9.2 mph - N/A   Clear
11:53 PM -11.0 °F -27.6 °F -17.0 °F 75% 29.73 in 10.0 mi NNW 8.1 mph - N/A   Clear